www.pogodaiklimat.ru

Погода и климат >> Архив погоды >> Самоа >> Lufi-Lufi


ПОГОДА в Lufi-Lufi

  • Прогноз погоды в Lufi-Lufi
  • Монитор погоды в Lufi-Lufi
  • Климат города

АРХИВ ПОГОДЫ в Lufi-Lufi

Время (UTC), дата Ветер
(напр.,м/с)
 
Видим.   Явления Облачность Т
(С)
Тd
(С)
f
(%)
Тe
(С)
Тes
(С)
Комфортность P
(гПа)
Po
(гПа)
Тmin
(С)
Tmax
(С)
R
(мм)
R24
(мм)
S
(см)
21 18.06 ЮВ 2 н/о н/о +29.3 +24.8 77 +42 +42 опасность
перегрева
1017.0 1011.6
00 19.06 В 2 н/о н/о +30.3 +24.6 72 +43 +43 опасность
перегрева
1015.2 1009.8 +24.3
03 19.06 В 2 н/о н/о +29.0 +24.7 78 +41 +41 опасность
перегрева
1014.1 1008.7
06 19.06 ЮВ 1 н/о н/о +26.2 +24.2 89 +36 +36 очень
душно
1015.5 1010.0
09 19.06 Ю 1 н/о н/о +24.8 +24.6 99 +35 +35 очень
душно
1016.6 1011.1
12 19.06 Ю 1 н/о н/о +25.1 +24.8 98 +35 +35 очень
душно
1016.0 1010.5 +30.0
15 19.06 Ю 1 н/о н/о +24.3 +24.0 98 +33 +33 очень
душно
1015.0 1009.5
18 19.06 Ю 1 н/о н/о +24.1 +23.9 99 +33 +33 очень
душно
1016.2 1010.7
21 19.06 В 1 н/о н/о +29.7 +26.3 82 +45 +45 опасность
перегрева
1017.3 1011.9
00 20.06 В 1 н/о н/о +31.7 +25.5 70 +46 +46 опасность
перегрева
1015.8 1010.4 +23.9
03 20.06 В 1 н/о н/о +31.7 +25.5 70 +46 +46 опасность
перегрева
1015.8 1010.4 +23.9
06 20.06 Ю 1 н/о н/о +25.3 +24.4 95 +35 +35 очень
душно
1015.7 1010.2
12 20.06 Ю 1 н/о н/о +24.2 +24.0 99 +33 +33 очень
душно
1016.4 1010.9 +31.0
15 20.06 Ю 1 н/о н/о +23.5 +23.5 100 +32 +32 очень
душно
1014.7 1009.2
18 20.06 Ю 1 н/о н/о +23.7 +23.9 100 +32 +32 очень
душно
1015.2 1009.7
21 20.06 ЮВ 1 н/о н/о +29.2 +25.1 79 +42 +42 опасность
перегрева
1015.9 1010.5
00 21.06 В 1 н/о н/о +29.9 +26.2 81 +46 +46 опасность
перегрева
1014.2 1008.8 +23.7
03 21.06 ЮВ 1 н/о н/о +28.8 +25.2 81 +42 +42 опасность
перегрева
1013.1 1007.7
06 21.06 Ю 1 н/о н/о +25.4 +25.1 98 +36 +36 очень
душно
1013.9 1008.4
09 21.06 Ю 1 н/о н/о +24.8 +25.0 100 +35 +35 очень
душно
1014.5 1009.0
12 21.06 штиль 0 н/о н/о +24.4 +24.6 100 +34 +34 очень
душно
1013.9 1008.4 +32.0 2
15 21.06 штиль 0 н/о н/о +24.5 +24.7 100 +34 +34 очень
душно
1013.0 1007.5
18 21.06 Ю 1 н/о н/о +23.4 +23.6 100 +33 +33 очень
душно
1014.0 1008.5 0.5
21 21.06 штиль 0 н/о н/о +31.4 +27.9 82 +52 +52 опасность
перегрева
1015.0 1009.6
00 22.06 С 1 н/о н/о +31.8 +26.8 75 +49 +49 опасность
перегрева
1013.5 1008.1 +23.2
03 22.06 СЗ 1 н/о н/о +28.7 +25.9 85 +43 +43 опасность
перегрева
1012.5 1007.1
06 22.06 Ю 1 н/о н/о +25.0 +25.2 100 +36 +36 очень
душно
1014.3 1008.8
12 22.06 Ю 1 н/о н/о +23.2 +23.4 100 +33 +33 очень
душно
1014.8 1009.3 +32.3 4
15 22.06 штиль 0 н/о н/о +23.3 +23.5 100 +33 +33 очень
душно
1013.5 1008.0
18 22.06 Ю 1 н/о н/о +22.8 +23.0 100 +31 +31 очень
душно
1014.8 1009.3 5
21 22.06 штиль 0 н/о н/о +26.7 +26.7 100 +41 +41 опасность
перегрева
1016.4 1010.9
00 23.06 СЗ 1 н/о н/о +31.4 +25.7 72 +46 +46 опасность
перегрева
1014.4 1009.0 +23.4
03 23.06 С 1 н/о н/о +28.8 +25.4 82 +42 +42 опасность
перегрева
1012.9 1007.5
06 23.06 штиль 0 н/о н/о +25.9 +25.0 95 +37 +37 очень
душно
1014.4 1008.9
09 23.06 Ю 1 н/о н/о +24.0 +24.2 100 +33 +33 очень
душно
1015.9 1010.4
12 23.06 З 1 н/о н/о +24.2 +24.4 100 +33 +33 очень
душно
1015.1 1009.6 +32.3
15 23.06 Ю 1 н/о н/о +23.2 +23.4 100 +33 +33 очень
душно
1013.8 1008.3
18 23.06 Ю 1 н/о н/о +22.6 +22.8 100 +31 +31 очень
душно
1015.5 1009.9
21 23.06 С 1 н/о н/о +31.7 +25.5 70 +46 +46 опасность
перегрева
1016.8 1011.4
00 24.06 С 1 н/о н/о +31.6 +25.9 72 +47 +47 опасность
перегрева
1015.2 1009.8 +22.8
03 24.06 С 1 н/о н/о +29.1 +24.8 78 +42 +42 опасность
перегрева
1013.4 1008.0
06 24.06 штиль 0 н/о н/о +25.5 +25.7 100 +37 +37 очень
душно
1015.1 1009.6
12 24.06 Ю 1 н/о н/о +23.8 +23.6 99 +32 +32 очень
душно
1016.0 1010.5 +32.7
18 24.06 Ю 1 н/о н/о +23.6 +23.8 100 +32 +32 очень
душно
1015.6 1010.1 0.5
21 24.06 В 1 н/о н/о +29.9 +26.9 84 +47 +47 опасность
перегрева
1016.7 1011.3
00 25.06 В 1 н/о н/о +29.7 +26.0 81 +45 +45 опасность
перегрева
1015.5 1010.1 +22.5 0.5
03 25.06 В 1 н/о н/о +28.0 +25.8 88 +42 +42 опасность
перегрева
1014.2 1008.8
06 25.06 Ю 1 н/о н/о +25.3 +25.3 100 +36 +36 очень
душно
1015.4 1009.9 1
09 25.06 Ю 1 н/о н/о +23.8 +24.0 100 +32 +32 очень
душно
1016.4 1010.9
12 25.06 Ю 1 н/о н/о +23.8 +24.0 100 +32 +32 очень
душно
1015.8 1010.3 +32.2
15 25.06 Ю 1 н/о н/о +23.6 +23.8 100 +32 +32 очень
душно
1014.2 1008.7 0.5
18 25.06 Ю 1 н/о н/о +23.8 +24.0 100 +32 +32 очень
душно
1015.3 1009.8 0.5

 

Местоположение метеостанции Lufi-Lufi (Самоа): широта -13.88 долгота -171.56 высота над уровнем моря 48 м.

В архиве по умолчанию представлена погода в Lufi-Lufi за последнюю неделю. Архивные данные за месяц целиком и за предыдущие месяцы, начиная с января 2011 года, Вы можете получить, выбрав интересующий диапазон дат из раскрывающегося списка и нажав кнопку "Ввод!".


*Определитесь, кто Вы:
робот инопланетянин человек

Внимание! Время в таблицах - всемирное. Для получения местного времени необходимо прибавить поправку, которая в Lufi-Lufi равна 13 ч.

Смотрите также архив погоды в соседних городах и на ближайших метеорологических станциях:

Погода в Le Mafa (Самоа) (10 км)
Погода в Apia (Американское Самоа) (18 км)
Погода в Togitogiga (Самоа) (28 км)
Погода в Faleolo Int East (Самоа) (47 км)
Погода в Faleolo Int Airport (Американское Самоа) (48 км)
Погода в Faleolo Int Airport (Самоа) (50 км)
Погода в Manono (Самоа) (59 км)
Погода в Maota Int Airport (Самоа) (77 км)
Погода в Le Piu Tai (Самоа) (101 км)
Погода в Mount Talu (Самоа) (130 км)

Пояснения к столбцам:

Ветер - указаны скорость ветра в м/с - средняя за 10 мин, порывы в срок и между сроками (в фигурных скобках) и направление, откуда дует ветер: С - северный, СВ - северо-восточный, В - восточный, ЮВ - юго-восточный, Ю - южный, ЮЗ - юго-западный, З - западный, СЗ - северо-западный.
Видимость - горизонтальная дальность видимости в метрах или километрах. При видимости от 1 до 10 км при отсутствии осадков обычно наблюдается дымка, при ухудшении видимости до 1 км и менее - туман. В сухую погоду видимость может ухудшаться дымом, пылью или мглою.
Явления - указаны атмосферные явления, наблюдавшиеся в срок или в последний час перед сроком; фигурными скобками обозначены явления, наблюдавшиеся между сроками (за 1-3 часа до срока); квадратными скобками обозначены град или гололедные отложения с указанием их диаметра в мм.
Облачность - указаны через наклонную черту общая и нижняя облачность в баллах и высота нижней границы облаков в метрах; квадратными скобками обозначены формы облаков: Ci - перистые, Cs - перисто-слоистые, Cc - перисто-кучевые, Ac - высококучевые, As - высокослоистые, Sc - слоисто-кучевые, Ns - слоисто-дождевые, Cu - кучевые, Cb - кучево-дождевые. Подробнее классификацию облаков см. в Атласе облаков (PDF).
T - Температура воздуха - температура, измеренная на высоте 2 м над землей.
Td - Температура точки росы - температура, при понижении до которой содержащийся в воздухе водяной пар достигнет насыщения.
f - Относительная влажность воздуха - влажноcть воздуха, измеренная на высоте 2 м над землей.
Te - Эффективная температура - температура, которую ощущает одетый по сезону человек в тени. Характеристика душности погоды. При расчете учитывается влияние влажности воздуха и скорости ветра на теплоощущения человека.
Tes - Эффективная температура на солнце - температура, которую ощущает человек, с поправкой на солнечный нагрев. Характеристика знойности погоды. Зависит от высоты солнца над горизонтом, облачности и скорости ветра. Ночью, в пасмурную погоду, а также при ветре 12 м/с и более поправка равна нулю.
P - Атмосферное давление - приведенное к уровню моря атмосферное давление.
Po - Атмосферное давление - измеренное на уровне метеостанции атмосферное давление.
Tmin - Минимальная температура - минимум температуры воздуха на высоте 2 м над землей.
Tmax - Максимальная температура - максимум температуры воздуха на высоте 2 м над землей.
R - Количество осадков - Количество выпавших осадков за период времени, мм. При наведении курсора мыши на число - период времени, за который выпало указанное количество осадков.
R24 - Количество осадков - Количество выпавших осадков за 24 часа, мм.
S - Снежный покров - Высота снежного покрова, см. При наведении курсора мыши на число - состояние снежного покрова и степень покрытия местности в баллах.